contact:dominique.lefevre@mio.osupytheas.fr, maurice.libes@osupytheas.fr
Project:EMSO Ligure-ouest http://www.emso-fr.org/EMSO-France
Sensor Aquadopp, line 13 Serial AQD14315 
DOI : "https://doi.org/10.17882/74513; https://doi.org/10.17882/83244" 
Title:EMSO Ligure Ouest : Data ligne ALBATROSS capteur AQUADOPP - deploiement 2021
Id,Date,Profondeur,Latitude,Longitude,X_East,Y_North,Z_Up,Amplitude_X,Amplitude_Y,Amplitude_Z,Batterie,SoundSpeed,Heading,Pitch,Roll,Pressure,Temperature,Speed,Direction
, , m, degrees North, degrees East, m.s-1, m.s-1,m.s-1, 1, 1, 1, Volt, m.s-1, degree, degree, degree, dbar, degree_C, m.s-1, degree
09,2022-09-01T23:30:00,2000.0,42.79,6.0312,0.006,0.019,0.008,59.0,57.0,60.0,12.9,1504.6,214.6,-0.7,1.0,1992.579,13.27,0.019,17.5
09,2022-09-02T00:00:00,2000.0,42.79,6.0312,0.004,0.003,0.002,68.0,56.0,63.0,12.9,1504.6,216.4,-0.8,1.0,1992.565,13.27,0.005,53.1
09,2022-09-02T00:30:00,2000.0,42.79,6.0312,-0.007,-0.011,0.007,58.0,71.0,59.0,12.9,1504.6,218.9,-0.7,0.9,1992.545,13.27,0.013,212.5
09,2022-09-02T01:00:00,2000.0,42.79,6.0312,0.017,-0.003,-0.009,65.0,54.0,56.0,12.9,1504.6,220.3,-0.7,0.9,1992.541,13.27,0.017,100.0
09,2022-09-02T02:00:00,2000.0,42.79,6.0312,0.006,0.001,-0.003,61.0,62.0,58.0,12.9,1504.6,219.8,-0.7,1.0,1992.503,13.27,0.006,80.5
09,2022-09-02T02:30:00,2000.0,42.79,6.0312,0.012,-0.011,0.007,59.0,61.0,68.0,12.9,1504.6,219.4,-0.7,1.0,1992.488,13.27,0.016,132.5
09,2022-09-02T03:00:00,2000.0,42.79,6.0312,0.034,-0.006,0.024,58.0,58.0,63.0,12.9,1504.6,217.1,-0.7,1.0,1992.461,13.27,0.034,100.0
09,2022-09-02T03:30:00,2000.0,42.79,6.0312,-0.032,0.008,0.011,63.0,59.0,57.0,12.9,1504.6,214.8,-0.7,0.9,1992.49,13.27,0.032,284.0
09,2022-09-02T04:00:00,2000.0,42.79,6.0312,0.005,0.008,0.011,65.0,59.0,61.0,12.9,1504.6,214.0,-0.7,0.9,1992.434,13.27,0.009,32.0
09,2022-09-02T04:30:00,2000.0,42.79,6.0312,0.007,-0.027,0.006,62.0,56.0,63.0,12.9,1504.6,214.3,-0.7,0.9,1992.427,13.27,0.027,165.5
09,2022-09-02T05:00:00,2000.0,42.79,6.0312,-0.008,-0.013,-0.024,63.0,73.0,63.0,12.9,1504.6,213.7,-0.7,0.9,1992.452,13.27,0.015,211.6
09,2022-09-02T05:30:00,2000.0,42.79,6.0312,-0.011,0.002,-0.002,63.0,59.0,61.0,12.9,1504.6,213.5,-0.7,1.0,1992.417,13.27,0.011,280.3
09,2022-09-02T06:00:00,2000.0,42.79,6.0312,-0.001,-0.012,0.029,62.0,61.0,64.0,12.9,1504.6,215.1,-0.7,1.0,1992.458,13.27,0.012,184.8
09,2022-09-02T06:30:00,2000.0,42.79,6.0312,0.0,-0.021,-0.002,63.0,62.0,63.0,12.9,1504.6,215.8,-0.8,1.0,1992.466,13.27,0.021,180.0
09,2022-09-02T07:00:00,2000.0,42.79,6.0312,0.016,-0.007,-0.014,64.0,58.0,63.0,12.9,1504.6,217.1,-0.7,1.0,1992.463,13.27,0.017,113.6
09,2022-09-02T07:30:00,2000.0,42.79,6.0312,0.002,-0.018,-0.007,61.0,57.0,63.0,12.9,1504.6,218.9,-0.7,1.0,1992.458,13.27,0.018,173.7
09,2022-09-02T08:00:00,2000.0,42.79,6.0312,-0.009,-0.007,-0.005,63.0,58.0,60.0,12.9,1504.6,220.4,-0.7,1.0,1992.505,13.27,0.011,232.1
09,2022-09-02T08:30:00,2000.0,42.79,6.0312,-0.005,-0.013,-0.013,62.0,64.0,60.0,12.9,1504.6,220.7,-0.7,1.0,1992.525,13.27,0.013,201.0
09,2022-09-02T09:00:00,2000.0,42.79,6.0312,-0.003,0.005,-0.021,61.0,60.0,61.0,12.9,1504.6,220.4,-0.7,0.9,1992.526,13.27,0.005,329.0
09,2022-09-02T09:30:00,2000.0,42.79,6.0312,-0.011,-0.009,-0.018,61.0,60.0,66.0,12.9,1504.6,219.2,-0.7,1.0,1992.586,13.27,0.014,230.7
09,2022-09-02T10:00:00,2000.0,42.79,6.0312,-0.004,0.001,0.007,66.0,57.0,63.0,12.9,1504.6,216.5,-0.7,0.9,1992.578,13.27,0.004,284.0
09,2022-09-02T10:30:00,2000.0,42.79,6.0312,-0.009,0.014,0.0,63.0,61.0,55.0,12.9,1504.6,215.1,-0.7,1.0,1992.584,13.27,0.016,327.3
09,2022-09-02T11:00:00,2000.0,42.79,6.0312,-0.006,-0.009,-0.004,68.0,56.0,62.0,12.9,1504.6,212.6,-0.7,1.0,1992.577,13.27,0.01,213.7
09,2022-09-02T11:30:00,2000.0,42.79,6.0312,0.002,0.01,0.029,67.0,61.0,60.0,12.9,1504.6,212.9,-0.7,1.0,1992.583,13.27,0.01,11.3
09,2022-09-02T12:00:00,2000.0,42.79,6.0312,-0.001,-0.01,0.016,59.0,56.0,63.0,12.9,1504.6,213.3,-0.7,1.0,1992.588,13.27,0.01,185.7
09,2022-09-02T12:30:00,2000.0,42.79,6.0312,-0.02,-0.015,-0.008,61.0,59.0,66.0,12.9,1504.6,213.6,-0.7,1.0,1992.588,13.27,0.025,233.1
09,2022-09-02T13:00:00,2000.0,42.79,6.0312,0.008,0.012,0.005,64.0,61.0,60.0,12.9,1504.6,214.7,-0.7,1.0,1992.577,13.27,0.014,33.7
09,2022-09-02T13:30:00,2000.0,42.79,6.0312,0.024,0.0,-0.012,60.0,58.0,61.0,12.9,1504.6,213.8,-0.7,1.0,1992.538,13.27,0.024,90.0
09,2022-09-02T14:00:00,2000.0,42.79,6.0312,0.005,0.001,-0.002,65.0,61.0,66.0,12.9,1504.6,213.8,-0.8,0.9,1992.53,13.27,0.005,78.7
09,2022-09-02T15:00:00,2000.0,42.79,6.0312,0.009,-0.029,-0.015,62.0,76.0,61.0,12.9,1504.6,214.2,-0.8,0.9,1992.518,13.27,0.03,162.8
09,2022-09-02T15:30:00,2000.0,42.79,6.0312,-0.004,-0.002,0.0,63.0,61.0,60.0,12.9,1504.6,214.9,-0.7,0.9,1992.505,13.27,0.004,243.4
09,2022-09-02T16:00:00,2000.0,42.79,6.0312,-0.004,-0.004,0.01,57.0,62.0,63.0,12.9,1504.6,214.0,-0.8,0.9,1992.504,13.27,0.005,225.0
09,2022-09-02T16:30:00,2000.0,42.79,6.0312,0.004,0.009,-0.011,65.0,55.0,65.0,12.9,1504.6,214.3,-0.7,1.0,1992.488,13.27,0.009,24.0
09,2022-09-02T17:00:00,2000.0,42.79,6.0312,0.018,0.006,-0.031,66.0,56.0,59.0,12.9,1504.6,214.0,-0.7,0.9,1992.467,13.27,0.018,71.6
09,2022-09-02T17:30:00,2000.0,42.79,6.0312,0.005,-0.034,-0.014,57.0,57.0,65.0,12.9,1504.6,212.0,-0.7,1.0,1992.415,13.27,0.034,171.6
09,2022-09-02T18:00:00,2000.0,42.79,6.0312,0.012,-0.015,0.021,65.0,58.0,65.0,12.9,1504.6,211.8,-0.8,1.0,1992.451,13.27,0.019,141.3
09,2022-09-02T18:30:00,2000.0,42.79,6.0312,0.0,-0.011,0.018,62.0,59.0,61.0,12.9,1504.6,211.6,-0.7,1.0,1992.491,13.27,0.011,180.0
09,2022-09-02T19:00:00,2000.0,42.79,6.0312,0.016,0.001,0.02,63.0,63.0,59.0,12.9,1504.6,212.4,-0.7,0.9,1992.48,13.27,0.016,86.4
09,2022-09-02T19:30:00,2000.0,42.79,6.0312,0.001,-0.002,-0.018,65.0,64.0,62.0,12.9,1504.6,212.4,-0.7,1.0,1992.511,13.27,0.002,153.4
09,2022-09-02T20:00:00,2000.0,42.79,6.0312,0.01,-0.004,-0.022,63.0,59.0,64.0,12.9,1504.6,211.7,-0.7,1.0,1992.527,13.27,0.01,111.8
09,2022-09-02T20:30:00,2000.0,42.79,6.0312,0.016,-0.01,-0.016,66.0,59.0,71.0,12.9,1504.6,212.0,-0.7,1.0,1992.558,13.27,0.018,122.0
09,2022-09-02T21:00:00,2000.0,42.79,6.0312,-0.004,0.009,-0.004,64.0,61.0,63.0,12.9,1504.6,212.7,-0.7,1.0,1992.645,13.27,0.009,336.0
09,2022-09-02T21:30:00,2000.0,42.79,6.0312,0.007,-0.002,-0.027,62.0,59.0,67.0,12.9,1504.6,213.5,-0.7,1.0,1992.584,13.27,0.007,105.9
09,2022-09-02T22:00:00,2000.0,42.79,6.0312,-0.01,0.001,-0.002,62.0,60.0,61.0,12.9,1504.6,214.0,-0.8,1.0,1992.6,13.27,0.01,275.7
09,2022-09-02T22:30:00,2000.0,42.79,6.0312,-0.004,-0.016,0.009,65.0,59.0,62.0,12.9,1504.6,215.3,-0.7,1.0,1992.626,13.27,0.016,194.0
09,2022-09-02T23:00:00,2000.0,42.79,6.0312,-0.009,-0.012,-0.008,61.0,57.0,63.0,12.9,1504.6,217.0,-0.7,1.0,1992.614,13.27,0.015,216.9
